, LA

(GMT )
Salt Point

Weather History for KP92 - November, 2012

Change the Weather History Date:

Sunday, November 4, 2012

  Actual Average Record
Temperature  
Mean Temperature 70 °F -  
Max Temperature 79 °F 71 °F 84 °F (2016)
Min Temperature 64 °F 56 °F 44 °F (1997)
Cooling Degree Days 4    
Growing Degree Days 20 (Base 50)    
Moisture  
Dew Point 65 °F    
Average Humidity 84    
Maximum Humidity 93    
Minimum Humidity 58    
Precipitation  
Precipitation 0.26 in - - ()
Sea Level Pressure  
Sea Level Pressure 30.06 in    
Wind  
Wind Speed 1 mph (ESE)    
Max Wind Speed 6 mph    
Max Gust Speed -    
Averages and records for this station are not official NWS values.
T = Trace of Precipitation, MM = Missing Value Source: NWS Daily Summary

Daily Weather History Graph

Daily Weather History Graph

Search for Another Location

Airport or City:

Trip Planner

Search our weather history database for the weather conditions in past years. The results will help you decide how hot, cold, wet, or windy it might be!

Date:

Astronomy

Nov. 04, 2012 Rise Set
Actual Time 6:21 AM CST 5:15 PM CST
Civil Twilight 5:56 AM CST 5:40 PM CST
Nautical Twilight 5:28 AM CST 6:09 PM CST
Astronomical Twilight 5:00 AM CST 6:37 PM CST
Moon 9:57 PM CST (11/4) 11:00 AM CST (11/4)
Length of Visible Light 11h 44m
Length of Day
10h 54m
Waning Gibbous, 72% of the Moon is Illuminated
Nov 4
Waning Gibbous
Nov 6
Last Quarter
Nov 13
New
Nov 20
First Quarter
Nov 28
Full

Hourly Weather History & Observations

Time (CST) Temp. Dew Point Humidity Pressure Visibility Wind Dir Wind Speed Gust Speed Precip Events Conditions
12:00 AM - - N/A% - - North - - N/A   Unknown
12:53 AM 73.0 °F 66.9 °F 81% 30.07 in - Calm Calm - N/A   Unknown
1:53 AM 72.0 °F 68.0 °F 87% 30.07 in - Calm Calm - N/A   Unknown
1:53 AM 72.0 °F 68.0 °F 87% 30.06 in - Calm Calm - N/A   Unknown
2:53 AM 71.1 °F 66.9 °F 87% 30.05 in - Calm Calm - N/A   Unknown
3:53 AM 69.1 °F 66.0 °F 90% 30.05 in - Calm Calm - N/A   Unknown
4:53 AM 71.1 °F 66.9 °F 87% 30.07 in - Calm Calm - N/A   Unknown
5:53 AM 68.0 °F 64.9 °F 90% 30.07 in - Calm Calm - N/A   Unknown
6:53 AM 66.9 °F 64.9 °F 93% 30.09 in - Calm Calm - N/A   Unknown
7:53 AM 70.0 °F 66.9 °F 90% 30.09 in - Calm Calm - N/A   Unknown
8:53 AM 75.9 °F 66.9 °F 74% 30.09 in - Calm Calm - N/A   Unknown
9:53 AM 72.0 °F 64.9 °F 78% 30.09 in - Calm Calm - 0.22 in   Unknown
10:53 AM 71.1 °F 66.0 °F 84% 30.09 in - Variable 3.5 mph - 0.04 in   Unknown
11:53 AM 73.9 °F 64.0 °F 71% 30.07 in - Calm Calm - N/A   Unknown
12:53 PM 75.9 °F 60.1 °F 58% 30.05 in - Calm Calm - N/A   Unknown
1:53 PM 73.0 °F 64.9 °F 76% 30.05 in - Variable 3.5 mph - N/A   Unknown
2:53 PM 73.9 °F 66.0 °F 76% 30.03 in - Variable 5.8 mph - N/A   Unknown
3:53 PM 72.0 °F 64.0 °F 76% 30.04 in - Variable 3.5 mph - N/A   Unknown
4:53 PM 71.1 °F 64.0 °F 78% 30.03 in - ESE 4.6 mph - N/A   Unknown
5:53 PM 68.0 °F 64.0 °F 87% 30.04 in - Calm Calm - N/A   Unknown
6:53 PM 66.9 °F 63.0 °F 87% 30.05 in - Calm Calm - N/A   Unknown
7:53 PM 64.9 °F 63.0 °F 93% 30.06 in - Calm Calm - N/A   Unknown
8:53 PM 64.9 °F 63.0 °F 93% 30.07 in - Calm Calm - N/A   Unknown
9:53 PM 64.9 °F 62.1 °F 90% 30.07 in - Calm Calm - N/A   Unknown
10:53 PM 64.0 °F 62.1 °F 93% 30.08 in - Calm Calm - N/A   Unknown